Port Heiden, AK

3:22 PM AKST on February 25, 2017 (GMT -0900)
Port Heiden

Weather History for PAPH - May, 2013

Change the Weather History Date:

Tuesday, May 14, 2013

  Actual Average Record
Temperature  
Mean Temperature 34 °F -  
Max Temperature 39 °F 45 °F 60 °F (2014)
Min Temperature 28 °F 32 °F 26 °F (2001)
Degree Days  
Heating Degree Days 32    
Moisture  
Dew Point 26 °F    
Average Humidity 69    
Maximum Humidity 80    
Minimum Humidity 55    
Precipitation  
Precipitation 0.00 in - - ()
Sea Level Pressure  
Sea Level Pressure 29.75 in    
Wind  
Wind Speed 10 mph (West)    
Max Wind Speed 18 mph    
Max Gust Speed 23 mph    
Visibility 10 miles    
Events      
Averages and records for this station are not official NWS values.
T = Trace of Precipitation, MM = Missing Value Source: NWS Daily Summary

Daily Weather History Graph

Daily Weather History Graph

Search for Another Location

Airport or City:

Trip Planner

Search our weather history database for the weather conditions in past years. The results will help you decide how hot, cold, wet, or windy it might be!

Date:

Astronomy

May. 14, 2013 Rise Set
Actual Time 6:17 AM AKDT 10:45 PM AKDT
Civil Twilight 5:25 AM AKDT 11:38 PM AKDT
Nautical Twilight 4:00 AM AKDT 1:05 AM AKDT
Astronomical Twilight Sun does not rise Sun does not rise
Moon 10:11 AM AKDT (5/14) 1:58 AM AKDT (5/14)
Length of Visible Light 18h 13m
Length of Day
16h 28m
Waxing Crescent, 20% of the Moon is Illuminated
May 14
Waxing Crescent
May 17
First Quarter
May 24
Full
May 31
Last Quarter
Jun 8
New

Hourly Weather History & Observations

Time (AKDT) Temp. Windchill Dew Point Humidity Pressure Visibility Wind Dir Wind Speed Gust Speed Precip Events Conditions
12:16 AM 33.8 °F 27.7 °F 24.8 °F 70% 29.74 in 10.0 mi WSW 6.9 mph - N/A   Overcast
12:36 AM 32.0 °F 24.2 °F 24.8 °F 75% 29.74 in 10.0 mi West 9.2 mph - N/A   Overcast
12:56 AM 33.8 °F 27.7 °F 24.8 °F 70% 29.74 in 10.0 mi WSW 6.9 mph - N/A   Overcast
1:16 AM 33.8 °F 25.8 °F 24.8 °F 70% 29.74 in 10.0 mi SW 10.4 mph - N/A   Overcast
1:36 AM 33.8 °F 26.4 °F 24.8 °F 70% 29.74 in 10.0 mi SW 9.2 mph - N/A   Overcast
1:56 AM 33.8 °F 27.0 °F 26.6 °F 75% 29.74 in 10.0 mi WSW 8.1 mph - N/A   Overcast
2:16 AM 33.8 °F 25.3 °F 24.8 °F 70% 29.74 in 10.0 mi WSW 11.5 mph - N/A   Overcast
2:36 AM 33.8 °F 25.3 °F 26.6 °F 75% 29.74 in 10.0 mi WSW 11.5 mph - N/A   Overcast
2:56 AM 33.8 °F 25.8 °F 26.6 °F 75% 29.74 in 10.0 mi WSW 10.4 mph - N/A   Overcast
3:16 AM 33.8 °F 25.8 °F 26.6 °F 75% 29.74 in 10.0 mi WSW 10.4 mph - N/A   Overcast
3:36 AM 32.0 °F 23.6 °F 24.8 °F 75% 29.74 in 10.0 mi WSW 10.4 mph - N/A   Overcast
3:56 AM 30.2 °F 21.3 °F 24.8 °F 80% 29.74 in 10.0 mi West 10.4 mph - N/A   Overcast
4:16 AM 30.2 °F 20.8 °F 24.8 °F 80% 29.74 in 10.0 mi West 11.5 mph - N/A   Overcast
4:36 AM 32.0 °F 24.2 °F 26.6 °F 80% 29.74 in 10.0 mi WSW 9.2 mph - N/A   Overcast
4:56 AM 32.0 °F 23.0 °F 24.8 °F 75% 29.74 in 10.0 mi West 11.5 mph - N/A   Overcast
5:16 AM 32.0 °F 23.6 °F 24.8 °F 75% 29.74 in 10.0 mi WSW 10.4 mph - N/A   Overcast
5:36 AM 33.8 °F 25.8 °F 26.6 °F 75% 29.74 in 10.0 mi West 10.4 mph - N/A   Overcast
5:56 AM 32.0 °F 24.2 °F 24.8 °F 75% 29.74 in 10.0 mi WSW 9.2 mph - N/A   Overcast
6:16 AM 32.0 °F 23.0 °F 24.8 °F 75% 29.75 in 10.0 mi WSW 11.5 mph - N/A   Overcast
6:36 AM 32.0 °F 23.6 °F 24.8 °F 75% 29.75 in 10.0 mi West 10.4 mph - N/A   Overcast
6:56 AM 32.0 °F 23.0 °F 24.8 °F 75% 29.75 in 10.0 mi WSW 11.5 mph - N/A   Overcast
7:16 AM 32.0 °F 22.5 °F 23.0 °F 69% 29.75 in 10.0 mi WSW 12.7 mph - N/A   Overcast
7:36 AM 33.8 °F 25.3 °F 24.8 °F 70% 29.75 in 10.0 mi West 11.5 mph - N/A   Overcast
7:56 AM 33.8 °F 24.8 °F 24.8 °F 70% 29.76 in 10.0 mi WSW 12.7 mph - N/A   Overcast
8:16 AM 33.8 °F 24.8 °F 24.8 °F 70% 29.76 in 10.0 mi WSW 12.7 mph - N/A   Overcast
8:36 AM 33.8 °F 24.8 °F 24.8 °F 70% 29.77 in 10.0 mi WSW 12.7 mph - N/A   Overcast
8:56 AM 33.8 °F 24.3 °F 24.8 °F 70% 29.77 in 10.0 mi WSW 13.8 mph - N/A   Overcast
9:16 AM 33.8 °F 24.8 °F 24.8 °F 70% 29.78 in 10.0 mi West 12.7 mph - N/A   Overcast
9:36 AM 33.8 °F 24.3 °F 24.8 °F 70% 29.78 in 10.0 mi WSW 13.8 mph - N/A   Overcast
9:56 AM 33.8 °F 23.9 °F 24.8 °F 70% 29.78 in 10.0 mi SW 15.0 mph - N/A   Overcast
10:16 AM 35.6 °F 25.5 °F 24.8 °F 65% 29.78 in 10.0 mi WSW 17.3 mph - N/A   Overcast
10:36 AM 35.6 °F 25.9 °F 23.0 °F 60% 29.78 in 10.0 mi WSW 16.1 mph - N/A   Overcast
10:56 AM 35.6 °F 25.2 °F 24.8 °F 65% 29.78 in 10.0 mi WSW 18.4 mph 23.0 mph N/A   Overcast
11:16 AM 35.6 °F 26.2 °F 23.0 °F 60% 29.78 in 10.0 mi WSW 15.0 mph - N/A   Overcast
11:36 AM 35.6 °F 26.2 °F 24.8 °F 65% 29.78 in 10.0 mi WSW 15.0 mph 20.7 mph N/A   Overcast
11:56 AM 35.6 °F 28.0 °F 23.0 °F 60% 29.78 in 10.0 mi WSW 10.4 mph - N/A   Overcast
12:16 PM 35.6 °F 27.1 °F 24.8 °F 65% 29.78 in 10.0 mi WSW 12.7 mph 17.3 mph N/A   Overcast
12:36 PM 35.6 °F 27.1 °F 24.8 °F 65% 29.79 in 10.0 mi WSW 12.7 mph 16.1 mph N/A   Overcast
12:56 PM 35.6 °F 27.1 °F 24.8 °F 65% 29.79 in 10.0 mi SW 12.7 mph 20.7 mph N/A   Overcast
1:16 PM 35.6 °F 26.2 °F 24.8 °F 65% 29.78 in 10.0 mi WSW 15.0 mph 18.4 mph N/A   Overcast
1:36 PM 37.4 °F 29.3 °F 24.8 °F 60% 29.79 in 10.0 mi SW 12.7 mph 18.4 mph N/A   Overcast
1:56 PM 37.4 °F 28.5 °F 26.6 °F 65% 29.78 in 10.0 mi WSW 15.0 mph - N/A   Overcast
2:16 PM 37.4 °F 28.9 °F 26.6 °F 65% 29.78 in 10.0 mi West 13.8 mph - N/A   Overcast
2:36 PM 37.4 °F 29.8 °F 26.6 °F 65% 29.78 in 10.0 mi WSW 11.5 mph 19.6 mph N/A   Overcast
2:56 PM 37.4 °F 29.3 °F 26.6 °F 65% 29.78 in 10.0 mi West 12.7 mph - N/A   Overcast
3:16 PM 37.4 °F 29.8 °F 26.6 °F 65% 29.78 in 10.0 mi WSW 11.5 mph - N/A   Overcast
3:36 PM 37.4 °F 29.8 °F 26.6 °F 65% 29.78 in 10.0 mi WSW 11.5 mph 16.1 mph N/A   Overcast
3:56 PM 37.4 °F 31.4 °F 26.6 °F 65% 29.77 in 10.0 mi WSW 8.1 mph - N/A   Overcast
4:16 PM 39.2 °F 33.0 °F 28.4 °F 65% 29.77 in 10.0 mi West 9.2 mph - N/A   Overcast
4:36 PM 39.2 °F 33.0 °F 26.6 °F 61% 29.76 in 10.0 mi West 9.2 mph - N/A   Mostly Cloudy
4:56 PM 39.2 °F 33.6 °F 26.6 °F 61% 29.76 in 10.0 mi West 8.1 mph - N/A   Mostly Cloudy
5:16 PM 37.4 °F 31.4 °F 28.4 °F 70% 29.76 in 10.0 mi West 8.1 mph - N/A   Mostly Cloudy
5:36 PM 37.4 °F 32.8 °F 26.6 °F 65% 29.76 in 10.0 mi West 5.8 mph - N/A   Mostly Cloudy
5:56 PM 37.4 °F 33.8 °F 28.4 °F 70% 29.76 in 10.0 mi West 4.6 mph - N/A   Scattered Clouds
6:16 PM 37.4 °F 32.8 °F 28.4 °F 70% 29.75 in 10.0 mi WNW 5.8 mph - N/A   Partly Cloudy
6:36 PM 37.4 °F 32.1 °F 26.6 °F 65% 29.75 in 10.0 mi NW 6.9 mph - N/A   Clear
6:56 PM 37.4 °F 31.4 °F 26.6 °F 65% 29.75 in 10.0 mi NW 8.1 mph - N/A   Clear
7:16 PM 35.6 °F 29.2 °F 26.6 °F 70% 29.74 in 10.0 mi NNW 8.1 mph - N/A   Clear
7:36 PM 35.6 °F 28.6 °F 26.6 °F 70% 29.74 in 10.0 mi NNW 9.2 mph - N/A   Clear
7:56 PM 35.6 °F 27.5 °F 26.6 °F 70% 29.74 in 10.0 mi NNW 11.5 mph - N/A   Clear
8:16 PM 35.6 °F 28.0 °F 26.6 °F 70% 29.73 in 10.0 mi North 10.4 mph - N/A   Clear
8:36 PM 35.6 °F 28.6 °F 26.6 °F 70% 29.73 in 10.0 mi North 9.2 mph - N/A   Clear
8:56 PM 33.8 °F 26.4 °F 26.6 °F 75% 29.72 in 10.0 mi North 9.2 mph - N/A   Clear
9:16 PM 35.6 °F 29.2 °F 26.6 °F 70% 29.72 in 10.0 mi NNE 8.1 mph - N/A   Clear
9:36 PM 35.6 °F 28.6 °F 26.6 °F 70% 29.72 in 10.0 mi NNE 9.2 mph - N/A   Clear
9:56 PM 35.6 °F 29.2 °F 26.6 °F 70% 29.72 in 10.0 mi NNE 8.1 mph - N/A   Clear
10:16 PM 33.8 °F 27.0 °F 26.6 °F 75% 29.72 in 10.0 mi NNE 8.1 mph - N/A   Clear
10:36 PM 33.8 °F 27.0 °F 24.8 °F 70% 29.72 in 10.0 mi NNE 8.1 mph - N/A   Clear
10:56 PM 30.2 °F 21.9 °F 24.8 °F 80% 29.72 in 10.0 mi NNE 9.2 mph - N/A   Clear
11:16 PM 30.2 °F 21.9 °F 24.8 °F 80% 29.72 in 10.0 mi NNE 9.2 mph - N/A   Clear
11:36 PM 28.4 °F 19.7 °F 21.2 °F 74% 29.71 in 10.0 mi NE 9.2 mph - N/A   Clear
11:56 PM 28.4 °F 19.7 °F 23.0 °F 80% 29.71 in 10.0 mi NE 9.2 mph - N/A   Clear